Tracking 27112 objects as of 26-Mar-2023
HD Live streaming from Space Station
objects crossing your sky now

STARLINK-2031

Track STARLINK-2031 now!
10-day predictions
STARLINK-2031 is classified as:


NORAD ID: 47648
Int'l Code: 2021-012AE
Perigee: 553.8 km
Apogee: 555.6 km
Inclination: 53.1 °
Period: 95.6 minutes
Semi major axis: 6925 km
RCS: Unknown
Launch date: February 16, 2021
Source: United States (US)
Launch site: AIR FORCE EASTERN TEST RANGE (AFETR)
Your satellite tracking list
Your tracking list is empty




NASA's NSSDC Master Catalog

Two Line Element Set (TLE):
1 47648U 21012AE  23084.63954005  .00015539  00000-0  10627-2 0  9995
2 47648  53.0552 220.1467 0001308  67.0402 293.0725 15.06297836117480
Source of the keplerian elements: AFSPC